Location: *
(46.1833°N, 22.7667°E)
Time: 11:33:27
(UTC+00:00)

Cosmos 2366 rocket - Pass Details

Date: 17 September 2019
Orbit: 956 x 996 km, 82.9° (Epoch: 15 October)

Event Time Altitude Azimuth Distance (km) Brightness Sun altitude
Rises 18:21:32 0° 354° (N) 3,722 7.5 -18.3°
Reaches altitude 10° 18:24:09 10° 359° (N) 2,772 6.7 -18.7°
Maximum altitude 18:30:23 54° 77° (ENE) 1,196 4.2 -19.7°
Enters shadow 18:33:06 33° 137° (SE) 1,620 4.6 -20.1°
